COSMOS 1275 DEB, 12673

Orbit data source: Space-Track

COSMOS 1275 DEB, 12673 is space debris in LEO originally from a launch on Thu, 04 Jun 1981 UTC launched from the Plesetsk Missile And Space Complex (PKMTR). Debris objects in space refer to the collection of defunct objects orbiting the Earth. Examples of debris include non-operational satellites, rocket bodies, and fragments generated from explosions, collisions, or faulty payload assembly.

Loading next visibility...
Identifier
12673, 1981-053AD
Orbit
LEO
Last TLE update
15 hours ago
Origin
Manufacturer
Unknown
Mission
Spacecraft
Bus & Motor
Unknown
Mass
Unknown
Launch date (UTC)
1981-06-04 (44 years ago)
Launch vehicle
Unknown
Launch site
Plesetsk Missile And Space Complex (PKMTR)
Object type
Payload
Rocket body
Debris
Shape & HBR
Unknown
Radar Cross Section
Medium (>0.1 m² and <1 m²)

Expand to show TLE details & history

TLE from 15 hours ago
0 COSMOS 1275 DEB
1 12673U 81053AD  25181.75171397  .00001460  00000-0  80565-3 0  9991
2 12673  82.8498  62.1219 0037196 167.8587 259.9416 14.10524157225329
Epoch: 2025-06-30T18:02Z
TLE epoch observation values (Epoch: 2025-06-30T18:02:28.087Z)
Latitude
66.41845°
Longitude
-110.94096°
Altitude
873.867 km
Speed
7.419 km/s
True Right ascension
05h 14m 55s
True Declination
66° 17' 39"
Sunlit
Object was in daylight at epoch
Visualization orbit readout
Latitude
69.95607°
Longitude
-108.06049°
Altitude
871.84 km
Speed
7.422 km/s
Apparent Right ascension
07h 51m 14s
Apparent Declination
22° 07' 42"
Sunlit
Object is in daylight
Visualization observer readout
Local Sidereal Time
21:01:09
Azimuth
18.008° NNE
Elevation
-25.848°
Doppler factor
1
Orbital elements
Apogee altitude
881.585 km
Perigee altitude
827.779 km
Semi-major axis
7,232.819 km
Eccentricity
0.00372
Inclination
82.8498°
RAAN
62.1219°
Arg. of periapsis
167.8587°
True anomaly
Unknown
Mean anomaly
259.9416°
Eccentric anomaly
Unknown
Mean motion
3.52843 °/min
Orbital period
102.03 mins
BSTAR
0.00080565
Loading maneuver chart data...
Loading SW <> Apogee altitude chart data...
Loading historical data...
Loading historical data...
Loading historical data...
Loading historical data...
Loading historical data...
Loading historical data...
Loading historical data...

COSMOS 1275 DEB Visibility forecast

Observer location: undefined°, undefined°

Span
Click to sort rows by Start time (UTC) header in descending order
Start Az.
Max El. time (UTC)
Max El. Az.
Max El.
End time (UTC)
End Az.
9 mins2025-07-01 15:57:52.755Z149.808° SSE2025-07-01 16:02:52.755Z82.254° E29.271°2025-07-01 16:06:52.755Z29.767° NE
8 mins2025-07-01 17:41:52.755Z234.551° WSW2025-07-01 17:45:52.755Z294.177° NW26.317°2025-07-01 17:49:52.755Z343.078° N
5 mins2025-07-02 02:40:52.755Z44.35° NE2025-07-02 02:42:52.755Z71.481° E18.419°2025-07-02 02:45:52.755Z109.007° ESE
9 mins2025-07-02 04:21:52.755Z338.102° N2025-07-02 04:25:52.755Z273.012° WNW37.666°2025-07-02 04:30:52.755Z195.269° SSW
|